This is the latest recevied weather packets stored in our database for station/object PY2UTU-WX. If no packets are shown the sender has not sent any weather packets the latest 1 day(s).
| Time | Temp. | Humidity | Pressure | Rain* | Wind** | Luminosity | Snow |
|---|---|---|---|---|---|---|---|
| 1777994845 | 27.22° C | 96% | 927.7 hPa | - | 0 m/s | - | - |
| 1777993945 | 27.22° C | 96% | 927.9 hPa | - | 0 m/s | - | - |
| 1777993046 | 26.67° C | 97% | 927.9 hPa | - | 0 m/s | - | - |
| 1777992145 | 26.11° C | 98% | 928.1 hPa | - | 0 m/s | - | - |
| 1777991255 | 25.56° C | 98% | 928.3 hPa | - | 0 m/s | - | - |
| 1777990345 | 25.56° C | 98% | 928.4 hPa | - | 0 m/s | - | - |
| 1777989445 | 25.56° C | 98% | 928.5 hPa | - | 0 m/s | - | - |
| 1777988545 | 25° C | 98% | 928.6 hPa | - | 0 m/s | - | - |
| 1777987645 | 25° C | 98% | 928.7 hPa | - | 0 m/s | - | - |
| 1777986745 | 24.44° C | 98% | 928.8 hPa | - | 0 m/s | - | - |
| 1777985845 | 23.33° C | 98% | 928.8 hPa | - | 0 m/s | - | - |
| 1777984945 | 23.33° C | 98% | 928.7 hPa | - | 0 m/s | - | - |
| 1777984045 | 23.33° C | 98% | 928.6 hPa | - | 0 m/s | - | - |
| 1777983145 | 22.22° C | 98% | 928.6 hPa | - | 0 m/s | - | - |
| 1777982245 | 22.78° C | 98% | 928.4 hPa | - | 0 m/s | - | - |
| 1777981345 | 22.22° C | 98% | 928.3 hPa | - | 0 m/s | - | - |
| 1777980445 | 21.67° C | 98% | 928.3 hPa | - | 0 m/s | - | - |
| 1777979545 | 22.22° C | 98% | 927.9 hPa | - | 0 m/s | - | - |
| 1777978645 | 21.67° C | 98% | 927.7 hPa | - | 0 m/s | - | - |
| 1777977745 | 22.22° C | 98% | 927.7 hPa | - | 0 m/s | - | - |
| 1777976846 | 21.67° C | 98% | 927.6 hPa | - | 0 m/s | - | - |
| 1777975945 | 21.11° C | 98% | 927.5 hPa | - | 0 m/s | - | - |
| 1777975045 | 21.11° C | 98% | 927.3 hPa | - | 0 m/s | - | - |
| 1777974145 | 21.11° C | 98% | 927.2 hPa | - | 0 m/s | - | - |
| 1777973245 | 21.11° C | 98% | 927.1 hPa | - | 0 m/s | - | - |
* Rain since midnight (hover to see other rain measurements)
** Current wind speed in m/s (hover to see current wind gust speed)